Location: NJAA Observatory
(40.6819°N, 74.8979°W)
Time: 06:08:25
(UTC-05:00)

S-56A Canister/Altair - Visible Passes

Search period start: 03 March 2015 00:00
Search period end: 13 March 2015 01:00
Orbit: 635 x 2501 km, 38.9° (Epoch: 26 February)

Date Brightness Start Highest point End Pass type
(mag) Time Alt. Az. Time Alt. Az. Time Alt. Az.
03 Mar 8.5 03:44:43 45° ESE 03:44:43 45° ESE 03:48:20 10° E visible
03 Mar 7.4 05:42:10 13° W 05:47:04 73° S 05:51:31 10° E visible
04 Mar 9.4 03:14:05 27° E 03:14:05 27° E 03:16:24 10° E visible
04 Mar 7.5 05:11:31 24° W 05:14:58 74° S 05:19:33 10° E visible
05 Mar 10.1 02:43:26 16° E 02:43:26 16° E 02:44:28 10° E visible
05 Mar 7.5 04:40:53 42° WSW 04:42:51 75° S 04:47:37 10° E visible
06 Mar 7.6 04:10:13 70° SW 04:10:42 75° S 04:15:41 10° E visible
07 Mar 8.2 03:39:34 60° ESE 03:39:34 60° ESE 03:43:46 10° E visible
07 Mar 7.7 05:37:01 12° W 05:42:14 57° SSW 05:46:43 10° ESE visible
08 Mar 9.1 04:08:54 36° E 04:08:54 36° E 04:11:51 10° E visible
08 Mar 7.7 06:06:21 23° W 06:10:08 63° SSW 06:14:49 10° ESE visible
09 Mar 9.9 03:38:15 21° E 03:38:15 21° E 03:39:55 10° E visible
09 Mar 7.7 05:35:42 39° W 05:38:01 68° SSW 05:42:56 10° ESE visible
10 Mar 10.5 03:07:36 12° E 03:07:36 12° E 03:07:59 10° E visible
10 Mar 7.8 05:05:03 64° WSW 05:05:50 73° S 05:11:02 10° ESE visible
11 Mar 8.1 04:34:26 66° SE 04:34:26 66° SE 04:39:08 10° ESE visible
11 Mar 8.3 06:31:53 12° W 06:37:06 36° SSW 06:41:27 10° SE visible
12 Mar 9.0 04:03:51 40° ESE 04:03:51 40° ESE 04:07:13 10° E visible
12 Mar 8.2 06:01:19 21° W 06:05:03 42° SSW 06:09:43 10° SE visible
